Regional Weather Roundup
Issued by NWS Goodland, KS

Home | Current Version | Previous Version | Text Only | Print | Product List | Glossary Off
Versions: 1 2 3 4 5 6 7 8 9 10 11 12 13 14 15 16 17 18 19 20 21 22 23 24 25 26 27 28 29 30 31 32 33 34 35 36 37 38 39 40 41 42 43 44 45 46 47 48 49 50

000
ASUS43 KGLD 262359
RWRGLD

GOODLAND FORECAST AREA HOURLY WEATHER ROUNDUP
NATIONAL WEATHER SERVICE GOODLAND KS
600 PM MDT SUN APR 26 2015

...OFFICIAL OBSERVATIONS...

CITY           SKY/WX    TMP DP  RH WIND       PRES   REMARKS
GOODLAND KS    CLOUDY    45  44  97 NE16      29.94R
HILL CITY KS   CLOUDY    50  43  77 E16       29.94S
IMPERIAL NEB   CLOUDY    46  43  89 E12       29.98S FOG
MCCOOK NEB     CLOUDY    53  43  68 E12       29.96F
AKRON CO       FOG       40  40 100 E17       29.96R VSB 1/4
BURLINGTON CO  CLOUDY    43  41  93 NE17      29.94R FOG
LIMON CO       CLOUDY    41  40  96 E12       29.94R
$$

...UNOFFICIAL OBSERVATIONS...

CITY           SKY/WX    TMP DP  RH WIND       PRES   REMARKS
GOVE KS          N/A     48  32  54 MISG        N/A
LENORA KS        N/A     49  32  52 MISG        N/A
SHARON SPRINGS   N/A     45  44  97 N18         N/A
KIT CARSON CO    N/A     43  41  92 MISG        N/A
YUMA CO          N/A     48  48 100 NE12        N/A
$$


USA.gov is the U.S. government's official web portal to all federal, state and local government web resources and services.